User: anonymous   Login
Location: Bosmont
(49.7318°N, 3.8587°E)
Time: 07:41:01
(UTC+00:00)
Language:

CUTE 1.7 + AOD 2 - Orbit

View from above orbital plane
View from above orbital plane
View from above satellite
View from above satellite

Ground track
Ground track

The orbit data is extracted from the following two-line orbital elements,

1 32785U 08021C   23335.87572873  .00007670  00000-0  72237-3 0  9993
2 32785  97.7306 298.6292 0009759 267.4125  92.5978 14.94076394845840
Epoch (UTC): 01 December 2023 21:01:02
Eccentricity: 0.0009759
inclination: 97.7306°
perigee height: 578 km
apogee height: 592 km
right ascension of ascending node: 298.6292°
argument of perigee: 267.4125°
revolutions per day: 14.94076394
mean anomaly at epoch: 92.5978°
orbit number at epoch: 84584

The dashed part of the orbit path shows where the satellite is in the earth's shadow,  

DLR